| time (UTC) | temp C | wind direction | speed KPH | gust KPH | rain 1hr cm | rain 24hr cm | rain mn cm | humidity % | barometer mb |
| 20260507100408 | 13 | 285 | 9.7 | 43.5 | 0.00 | 0.00 | 0.00 | 60 | 1014.9 |
| 20260507100108 | 13 | 19 | 27.4 | 49.9 | 0.00 | 0.00 | 0.00 | 59 | 1015.0 |
| 20260507095808 | 13 | 99 | 41.8 | 46.7 | 0.00 | 0.00 | 0.00 | 61 | 1015.1 |
| 20260507095508 | 13 | 7 | 49.9 | 51.5 | 0.00 | 0.00 | 0.00 | 60 | 1014.9 |
| 20260507095208 | 12 | 61 | 17.7 | 38.6 | 0.00 | 0.00 | 0.00 | 61 | 1015.0 |
| 20260507094908 | 13 | 61 | 56.3 | 62.8 | 0.00 | 0.00 | 0.00 | 59 | 1014.8 |
| 20260507094608 | 13 | 27 | 17.7 | 53.1 | 0.00 | 0.00 | 0.00 | 60 | 1015.0 |
| 20260507094308 | 13 | 323 | 19.3 | 37.0 | 0.00 | 0.00 | 0.00 | 59 | 1014.9 |
| 20260507094008 | 13 | 350 | 8.0 | 37.0 | 0.00 | 0.00 | 0.00 | 60 | 1014.9 |
| 20260507093708 | 13 | 9 | 8.0 | 32.2 | 0.00 | 0.00 | 0.00 | 61 | 1014.9 |
| 20260507093408 | 13 | 328 | 9.7 | 24.1 | 0.00 | 0.00 | 0.00 | 60 | 1014.9 |
| 20260507093108 | 13 | 354 | 24.1 | 41.8 | 0.00 | 0.00 | 0.00 | 59 | 1015.1 |
| 20260507092808 | 13 | 325 | 9.7 | 29.0 | 0.00 | 0.00 | 0.00 | 60 | 1015.0 |
| 20260507092508 | 13 | 25 | 14.5 | 45.1 | 0.00 | 0.00 | 0.00 | 60 | 1014.7 |
| 20260507092208 | 13 | 354 | 12.9 | 24.1 | 0.00 | 0.00 | 0.00 | 61 | 1014.7 |
| 20260507091908 | 13 | 349 | 25.7 | 43.5 | 0.00 | 0.00 | 0.00 | 60 | 1014.8 |
| 20260507091608 | 12 | 76 | 16.1 | 38.6 | 0.00 | 0.00 | 0.00 | 63 | 1014.8 |
| 20260507091308 | 12 | 323 | 22.5 | 61.2 | 0.00 | 0.00 | 0.00 | 63 | 1014.8 |
| 20260507091008 | 13 | 6 | 22.5 | 37.0 | 0.00 | 0.00 | 0.00 | 62 | 1014.5 |
| 20260507090708 | 12 | 113 | 6.4 | 37.0 | 0.00 | 0.00 | 0.00 | 63 | 1014.9 |
| 20260507090408 | 12 | 60 | 22.5 | 66.0 | 0.00 | 0.00 | 0.00 | 63 | 1014.9 |
| 20260507090108 | 13 | 94 | 30.6 | 48.3 | 0.00 | 0.00 | 0.00 | 62 | 1014.6 |
| 20260507085808 | 12 | 42 | 17.7 | 30.6 | 0.00 | 0.00 | 0.00 | 65 | 1014.6 |
| 20260507085508 | 12 | 21 | 14.5 | 37.0 | 0.00 | 0.00 | 0.00 | 64 | 1014.7 |
| 20260507085208 | 12 | 101 | 43.5 | 51.5 | 0.00 | 0.00 | 0.00 | 62 | 1014.7 |
| 20260507084908 | 12 | 86 | 17.7 | 32.2 | 0.00 | 0.00 | 0.00 | 63 | 1014.7 |
| 20260507084608 | 12 | 11 | 20.9 | 37.0 | 0.00 | 0.00 | 0.00 | 64 | 1014.6 |
| 20260507084308 | 12 | 19 | 14.5 | 43.5 | 0.00 | 0.00 | 0.00 | 65 | 1014.6 |
| 20260507084008 | 12 | 6 | 17.7 | 29.0 | 0.00 | 0.00 | 0.00 | 63 | 1014.6 |
| 20260507083708 | 12 | 358 | 9.7 | 54.7 | 0.00 | 0.00 | 0.00 | 63 | 1014.7 |
| 20260507083408 | 12 | 6 | 14.5 | 32.2 | 0.00 | 0.00 | 0.00 | 65 | 1014.5 |
| 20260507083108 | 12 | 24 | 27.4 | 67.6 | 0.00 | 0.00 | 0.00 | 64 | 1014.6 |
| 20260507082808 | 12 | 348 | 30.6 | 37.0 | 0.00 | 0.00 | 0.00 | 63 | 1014.7 |
| 20260507082508 | 12 | 79 | 16.1 | 30.6 | 0.00 | 0.00 | 0.00 | 64 | 1014.5 |
| 20260507082208 | 12 | 357 | 19.3 | 40.2 | 0.00 | 0.00 | 0.00 | 64 | 1014.4 |
| 20260507081908 | 12 | 26 | 17.7 | 37.0 | 0.00 | 0.00 | 0.00 | 65 | 1014.6 |
| 20260507081608 | 12 | 86 | 16.1 | 37.0 | 0.00 | 0.00 | 0.00 | 66 | 1014.5 |
| 20260507081308 | 12 | 12 | 27.4 | 30.6 | 0.00 | 0.00 | 0.00 | 65 | 1014.6 |
| 20260507081008 | 12 | 355 | 17.7 | 40.2 | 0.00 | 0.00 | 0.00 | 65 | 1014.5 |
| 20260507080708 | 12 | 80 | 30.6 | 56.3 | 0.00 | 0.00 | 0.00 | 64 | 1014.4 |
| 20260507080408 | 12 | 101 | 20.9 | 25.7 | 0.00 | 0.00 | 0.00 | 66 | 1014.4 |
| 20260507080108 | 11 | 89 | 6.4 | 48.3 | 0.00 | 0.00 | 0.00 | 67 | 1014.3 |
| 20260507075808 | 11 | 53 | 30.6 | 30.6 | 0.00 | 0.00 | 0.00 | 68 | 1014.3 |
| 20260507075508 | 11 | 360 | 25.7 | 33.8 | 0.00 | 0.00 | 0.00 | 67 | 1014.2 |
| 20260507075208 | 11 | 47 | 12.9 | 37.0 | 0.00 | 0.00 | 0.00 | 67 | 1014.2 |
| 20260507074908 | 11 | 32 | 9.7 | 43.5 | 0.00 | 0.00 | 0.00 | 66 | 1014.3 |
| 20260507074608 | 11 | 333 | 16.1 | 37.0 | 0.00 | 0.00 | 0.00 | 66 | 1014.0 |
| 20260507074308 | 11 | 116 | 17.7 | 45.1 | 0.00 | 0.00 | 0.00 | 65 | 1014.1 |
| 20260507074008 | 11 | 69 | 20.9 | 62.8 | 0.00 | 0.00 | 0.00 | 65 | 1014.1 |
| 20260507073708 | 11 | 69 | 25.7 | 49.9 | 0.00 | 0.00 | 0.00 | 64 | 1014.2 |
| 20260507073408 | 11 | 55 | 35.4 | 48.3 | 0.00 | 0.00 | 0.00 | 64 | 1014.0 |
| 20260507073108 | 11 | 341 | 14.5 | 51.5 | 0.00 | 0.00 | 0.00 | 63 | 1014.0 |
| 20260507072808 | 11 | 97 | 9.7 | 19.3 | 0.00 | 0.00 | 0.00 | 66 | 1014.0 |
| 20260507072509 | 10 | 67 | 24.1 | 64.4 | 0.00 | 0.00 | 0.00 | 66 | 1014.1 |
| 20260507072208 | 10 | 55 | 40.2 | 43.5 | 0.00 | 0.00 | 0.00 | 65 | 1014.0 |
| 20260507071908 | 10 | 123 | 37.0 | 59.5 | 0.00 | 0.00 | 0.00 | 65 | 1014.2 |
| 20260507071608 | 10 | 28 | 22.5 | 62.8 | 0.00 | 0.00 | 0.00 | 65 | 1014.1 |
| 20260507071308 | 10 | 82 | 41.8 | 62.8 | 0.00 | 0.00 | 0.00 | 65 | 1014.2 |
| 20260507071008 | 10 | 96 | 20.9 | 54.7 | 0.00 | 0.00 | 0.00 | 67 | 1013.9 |
| 20260507070708 | 10 | 80 | 32.2 | 53.1 | 0.00 | 0.00 | 0.00 | 65 | 1014.0 |
| 20260507070408 | 10 | 62 | 24.1 | 48.3 | 0.00 | 0.00 | 0.00 | 66 | 1014.0 |
| 20260507070108 | 10 | 98 | 24.1 | 56.3 | 0.00 | 0.00 | 0.00 | 65 | 1014.1 |
| 20260507065808 | 10 | 93 | 16.1 | 37.0 | 0.00 | 0.00 | 0.00 | 67 | 1014.0 |
| 20260507065508 | 10 | 261 | 25.7 | 82.1 | 0.00 | 0.00 | 0.00 | 67 | 1014.0 |
| 20260507065208 | 10 | 112 | 17.7 | 49.9 | 0.00 | 0.00 | 0.00 | 67 | 1013.9 |
| 20260507064908 | 10 | 93 | 12.9 | 32.2 | 0.00 | 0.00 | 0.00 | 70 | 1014.0 |
| 20260507064608 | 9 | 71 | 17.7 | 51.5 | 0.00 | 0.00 | 0.00 | 71 | 1014.1 |
| 20260507064308 | 9 | 67 | 30.6 | 48.3 | 0.00 | 0.00 | 0.00 | 71 | 1013.9 |
| 20260507064008 | 8 | 47 | 17.7 | 57.9 | 0.00 | 0.00 | 0.00 | 71 | 1014.1 |
| 20260507063708 | 8 | 19 | 35.4 | 37.0 | 0.00 | 0.00 | 0.00 | 74 | 1013.9 |
| 20260507063408 | 8 | 65 | 14.5 | 30.6 | 0.00 | 0.00 | 0.00 | 74 | 1013.8 |
| 20260507063108 | 8 | 47 | 41.8 | 43.5 | 0.00 | 0.00 | 0.00 | 75 | 1013.9 |
| 20260507062808 | 8 | 64 | 0.0 | 27.4 | 0.00 | 0.00 | 0.00 | 76 | 1013.8 |
| 20260507062508 | 8 | 34 | 12.9 | 27.4 | 0.00 | 0.00 | 0.00 | 76 | 1013.8 |
| 20260507062208 | 7 | 13 | 9.7 | 25.7 | 0.00 | 0.00 | 0.00 | 76 | 1013.8 |
| 20260507061908 | 7 | 102 | 17.7 | 38.6 | 0.00 | 0.00 | 0.00 | 76 | 1013.8 |
| 20260507061608 | 7 | 116 | 27.4 | 37.0 | 0.00 | 0.00 | 0.00 | 76 | 1013.7 |
| 20260507061308 | 7 | 308 | 14.5 | 20.9 | 0.00 | 0.00 | 0.00 | 77 | 1013.5 |
| 20260507061008 | 7 | 81 | 17.7 | 43.5 | 0.00 | 0.00 | 0.00 | 76 | 1013.7 |
| 20260507060708 | 7 | 355 | 0.0 | 24.1 | 0.00 | 0.00 | 0.00 | 76 | 1013.6 |
| 20260507060408 | 7 | 62 | 19.3 | 37.0 | 0.00 | 0.00 | 0.00 | 77 | 1013.5 |
| 20260507060108 | 7 | 86 | 9.7 | 19.3 | 0.00 | 0.00 | 0.00 | 78 | 1013.7 |
| 20260507055808 | 7 | 85 | 12.9 | 30.6 | 0.00 | 0.00 | 0.00 | 77 | 1013.5 |
| 20260507055508 | 7 | 57 | 17.7 | 25.7 | 0.00 | 0.00 | 0.00 | 78 | 1013.6 |
| 20260507055208 | 7 | 47 | 25.7 | 48.3 | 0.00 | 0.00 | 0.00 | 78 | 1013.5 |
| 20260507054908 | 7 | 77 | 24.1 | 38.6 | 0.00 | 0.00 | 0.00 | 78 | 1013.4 |
| 20260507054608 | 7 | 48 | 24.1 | 45.1 | 0.00 | 0.00 | 0.00 | 78 | 1013.4 |
| 20260507054308 | 7 | 148 | 17.7 | 25.7 | 0.00 | 0.00 | 0.00 | 79 | 1013.4 |
| 20260507054008 | 7 | 137 | 19.3 | 24.1 | 0.00 | 0.00 | 0.00 | 79 | 1013.2 |
| 20260507053708 | 7 | 123 | 20.9 | 20.9 | 0.00 | 0.00 | 0.00 | 79 | 1013.4 |
| 20260507053408 | 7 | 48 | 19.3 | 48.3 | 0.00 | 0.00 | 0.00 | 79 | 1013.2 |
| 20260507053108 | 7 | 83 | 25.7 | 40.2 | 0.00 | 0.00 | 0.00 | 79 | 1013.4 |
| 20260507052808 | 7 | 104 | 24.1 | 32.2 | 0.00 | 0.00 | 0.00 | 80 | 1013.2 |
| 20260507052508 | 7 | 86 | 17.7 | 32.2 | 0.00 | 0.00 | 0.00 | 79 | 1012.9 |
| 20260507052208 | 7 | 76 | 8.0 | 33.8 | 0.00 | 0.00 | 0.00 | 80 | 1013.1 |
| 20260507051908 | 7 | 14 | 8.0 | 20.9 | 0.00 | 0.00 | 0.00 | 80 | 1013.1 |
| 20260507051608 | 7 | 71 | 17.7 | 40.2 | 0.00 | 0.00 | 0.00 | 80 | 1013.0 |
| 20260507051308 | 7 | 87 | 22.5 | 37.0 | 0.00 | 0.00 | 0.00 | 80 | 1013.0 |
| 20260507051008 | 7 | 67 | 25.7 | 32.2 | 0.00 | 0.00 | 0.00 | 80 | 1013.0 |
| 20260507050708 | 7 | 133 | 14.5 | 32.2 | 0.00 | 0.00 | 0.00 | 80 | 1013.1 |
| 20260507050408 | 7 | 98 | 12.9 | 30.6 | 0.00 | 0.00 | 0.00 | 80 | 1012.9 |
| 20260507050108 | 7 | 62 | 17.7 | 33.8 | 0.00 | 0.00 | 0.00 | 80 | 1012.9 |
| 20260507045808 | 7 | 78 | 0.0 | 19.3 | 0.00 | 0.00 | 0.00 | 81 | 1012.9 |
| 20260507045508 | 7 | 106 | 20.9 | 41.8 | 0.00 | 0.00 | 0.00 | 81 | 1012.8 |
| 20260507045208 | 7 | 85 | 17.7 | 24.1 | 0.00 | 0.00 | 0.00 | 81 | 1012.7 |
| 20260507044908 | 7 | 57 | 17.7 | 30.6 | 0.00 | 0.00 | 0.00 | 81 | 1012.8 |
| 20260507044608 | 7 | 127 | 24.1 | 30.6 | 0.00 | 0.00 | 0.00 | 81 | 1012.7 |
| 20260507044308 | 7 | 72 | 11.3 | 45.1 | 0.00 | 0.00 | 0.00 | 81 | 1012.8 |
| 20260507044008 | 6 | 177 | 17.7 | 25.7 | 0.00 | 0.00 | 0.00 | 81 | 1012.7 |
| 20260507043708 | 6 | 171 | 20.9 | 37.0 | 0.00 | 0.00 | 0.00 | 81 | 1012.5 |
| 20260507043408 | 6 | 26 | 29.0 | 37.0 | 0.00 | 0.00 | 0.00 | 81 | 1012.8 |
| 20260507043108 | 6 | 83 | 24.1 | 32.2 | 0.00 | 0.00 | 0.00 | 81 | 1012.6 |
| 20260507042808 | 6 | 117 | 25.7 | 53.1 | 0.00 | 0.00 | 0.00 | 81 | 1012.7 |
| 20260507042508 | 6 | 207 | 14.5 | 33.8 | 0.00 | 0.00 | 0.00 | 81 | 1012.5 |
| 20260507042208 | 6 | 157 | 12.9 | 24.1 | 0.00 | 0.00 | 0.00 | 82 | 1012.5 |
| 20260507041908 | 6 | 117 | 38.6 | 57.9 | 0.00 | 0.00 | 0.00 | 82 | 1012.5 |
| 20260507041608 | 6 | 167 | 22.5 | 37.0 | 0.00 | 0.00 | 0.00 | 82 | 1012.7 |
| 20260507041308 | 6 | 97 | 22.5 | 27.4 | 0.00 | 0.00 | 0.00 | 82 | 1012.5 |
| 20260507041008 | 6 | 127 | 12.9 | 30.6 | 0.00 | 0.00 | 0.00 | 82 | 1012.5 |
| 20260507040708 | 6 | 102 | 22.5 | 35.4 | 0.00 | 0.00 | 0.00 | 82 | 1012.4 |
| 20260507040408 | 6 | 118 | 8.0 | 16.1 | 0.00 | 0.00 | 0.00 | 82 | 1012.6 |
| 20260507040108 | 6 | 84 | 19.3 | 30.6 | 0.00 | 0.00 | 0.00 | 82 | 1012.4 |
| 20260507035808 | 6 | 143 | 17.7 | 33.8 | 0.00 | 0.00 | 0.00 | 83 | 1012.2 |
| 20260507035508 | 6 | 61 | 11.3 | 29.0 | 0.00 | 0.00 | 0.00 | 83 | 1012.5 |
| 20260507035208 | 6 | 138 | 22.5 | 43.5 | 0.00 | 0.00 | 0.00 | 83 | 1012.5 |
| 20260507034908 | 6 | 99 | 19.3 | 29.0 | 0.00 | 0.00 | 0.00 | 83 | 1012.4 |
| 20260507034608 | 6 | 81 | 12.9 | 54.7 | 0.00 | 0.00 | 0.00 | 83 | 1012.4 |
| 20260507034308 | 6 | 121 | 17.7 | 32.2 | 0.00 | 0.00 | 0.00 | 83 | 1012.3 |
| 20260507034008 | 6 | 131 | 14.5 | 22.5 | 0.00 | 0.00 | 0.00 | 83 | 1012.4 |
| 20260507033708 | 6 | 167 | 9.7 | 30.6 | 0.00 | 0.00 | 0.00 | 83 | 1012.4 |
| 20260507033408 | 6 | 80 | 16.1 | 27.4 | 0.00 | 0.00 | 0.00 | 83 | 1012.4 |
| 20260507033108 | 6 | 146 | 22.5 | 30.6 | 0.00 | 0.00 | 0.00 | 83 | 1012.3 |
| 20260507032808 | 6 | 67 | 19.3 | 35.4 | 0.00 | 0.00 | 0.00 | 83 | 1012.3 |
| 20260507032508 | 6 | 350 | 9.7 | 35.4 | 0.00 | 0.00 | 0.00 | 83 | 1012.2 |
| 20260507032208 | 6 | 7 | 12.9 | 35.4 | 0.00 | 0.00 | 0.00 | 83 | 1012.4 |
| 20260507031908 | 6 | 76 | 17.7 | 37.0 | 0.00 | 0.00 | 0.00 | 82 | 1012.4 |
| 20260507031608 | 6 | 107 | 17.7 | 35.4 | 0.00 | 0.00 | 0.00 | 83 | 1012.1 |
| 20260507031308 | 6 | 78 | 8.0 | 30.6 | 0.00 | 0.00 | 0.00 | 83 | 1012.2 |
| 20260507031008 | 6 | 95 | 12.9 | 29.0 | 0.00 | 0.00 | 0.00 | 83 | 1012.2 |
| 20260507030708 | 6 | 57 | 19.3 | 33.8 | 0.00 | 0.00 | 0.00 | 83 | 1012.3 |
| 20260507030408 | 6 | 81 | 16.1 | 37.0 | 0.00 | 0.00 | 0.00 | 83 | 1012.2 |
| 20260507030108 | 6 | 14 | 9.7 | 33.8 | 0.00 | 0.00 | 0.00 | 83 | 1012.0 |
| 20260507025808 | 6 | 55 | 27.4 | 45.1 | 0.00 | 0.00 | 0.00 | 84 | 1011.8 |
| 20260507025508 | 6 | 113 | 12.9 | 29.0 | 0.00 | 0.00 | 0.00 | 84 | 1012.0 |
| 20260507025208 | 6 | 74 | 24.1 | 35.4 | 0.00 | 0.00 | 0.00 | 84 | 1012.1 |
| 20260507024908 | 6 | 51 | 9.7 | 29.0 | 0.00 | 0.00 | 0.00 | 84 | 1012.0 |
| 20260507024608 | 6 | 98 | 19.3 | 38.6 | 0.00 | 0.00 | 0.00 | 84 | 1012.0 |
| 20260507024308 | 6 | 29 | 9.7 | 30.6 | 0.00 | 0.00 | 0.00 | 84 | 1011.9 |
| 20260507024008 | 6 | 40 | 14.5 | 33.8 | 0.00 | 0.00 | 0.00 | 84 | 1012.0 |
| 20260507023708 | 6 | 39 | 11.3 | 48.3 | 0.00 | 0.00 | 0.00 | 84 | 1011.9 |
| 20260507023408 | 6 | 57 | 9.7 | 32.2 | 0.00 | 0.00 | 0.00 | 84 | 1011.9 |
| 20260507023108 | 6 | 83 | 6.4 | 43.5 | 0.00 | 0.00 | 0.00 | 84 | 1011.8 |
| 20260507022808 | 6 | 102 | 17.7 | 25.7 | 0.00 | 0.00 | 0.00 | 84 | 1011.9 |
| 20260507022508 | 6 | 76 | 14.5 | 37.0 | 0.00 | 0.00 | 0.00 | 84 | 1011.8 |
| 20260507022208 | 6 | 103 | 16.1 | 33.8 | 0.00 | 0.00 | 0.00 | 84 | 1012.0 |
| 20260507021908 | 6 | 106 | 6.4 | 25.7 | 0.00 | 0.00 | 0.00 | 84 | 1012.0 |
| 20260507021608 | 6 | 43 | 19.3 | 30.6 | 0.00 | 0.00 | 0.00 | 84 | 1012.0 |
| 20260507021308 | 6 | 65 | 16.1 | 24.1 | 0.00 | 0.00 | 0.00 | 85 | 1012.1 |
| 20260507021008 | 6 | 70 | 30.6 | 35.4 | 0.00 | 0.00 | 0.00 | 85 | 1011.9 |
| 20260507020708 | 6 | 95 | 9.7 | 37.0 | 0.00 | 0.00 | 0.00 | 85 | 1012.0 |
| 20260507020408 | 6 | 37 | 0.0 | 30.6 | 0.00 | 0.00 | 0.00 | 85 | 1011.9 |
| 20260507020108 | 6 | 70 | 27.4 | 43.5 | 0.00 | 0.00 | 0.00 | 85 | 1011.8 |
| 20260507015808 | 6 | 118 | 22.5 | 41.8 | 0.00 | 0.00 | 0.00 | 85 | 1011.7 |
| 20260507015508 | 6 | 69 | 12.9 | 25.7 | 0.00 | 0.00 | 0.00 | 85 | 1011.8 |
| 20260507015208 | 6 | 79 | 17.7 | 19.3 | 0.00 | 0.00 | 0.00 | 85 | 1011.6 |
| 20260507014908 | 6 | 87 | 0.0 | 20.9 | 0.00 | 0.00 | 0.00 | 85 | 1011.5 |
| 20260507014608 | 6 | 82 | 12.9 | 37.0 | 0.00 | 0.00 | 0.00 | 85 | 1011.6 |
| 20260507014308 | 6 | 97 | 17.7 | 37.0 | 0.00 | 0.00 | 0.00 | 85 | 1011.5 |
| 20260507014008 | 6 | 88 | 19.3 | 29.0 | 0.00 | 0.00 | 0.00 | 85 | 1011.5 |
| 20260507013708 | 6 | 63 | 0.0 | 32.2 | 0.00 | 0.00 | 0.00 | 85 | 1011.7 |
| 20260507013408 | 6 | 108 | 0.0 | 22.5 | 0.00 | 0.00 | 0.00 | 85 | 1011.5 |
| 20260507013108 | 6 | 61 | 25.7 | 25.7 | 0.00 | 0.00 | 0.00 | 86 | 1011.3 |
| 20260507012808 | 6 | 105 | 16.1 | 33.8 | 0.00 | 0.00 | 0.00 | 86 | 1011.5 |
| 20260507012508 | 6 | 100 | 11.3 | 32.2 | 0.00 | 0.00 | 0.00 | 86 | 1011.5 |
| 20260507012208 | 6 | 96 | 9.7 | 27.4 | 0.00 | 0.00 | 0.00 | 86 | 1011.5 |
| 20260507011908 | 6 | 144 | 0.0 | 24.1 | 0.00 | 0.00 | 0.00 | 86 | 1011.6 |
| 20260507011608 | 6 | 96 | 17.7 | 30.6 | 0.00 | 0.00 | 0.00 | 86 | 1011.5 |
| 20260507011308 | 6 | 34 | 6.4 | 17.7 | 0.00 | 0.00 | 0.00 | 86 | 1011.4 |
| 20260507011008 | 6 | 88 | 14.5 | 27.4 | 0.00 | 0.00 | 0.00 | 86 | 1011.5 |
| 20260507010708 | 6 | 16 | 8.0 | 24.1 | 0.00 | 0.00 | 0.00 | 86 | 1011.5 |
| 20260507010408 | 6 | 84 | 9.7 | 17.7 | 0.00 | 0.00 | 0.00 | 86 | 1011.5 |
| 20260507010108 | 6 | 71 | 9.7 | 17.7 | 0.00 | 0.00 | 0.00 | 85 | 1011.5 |
| 20260507005808 | 6 | 97 | 20.9 | 24.1 | 0.00 | 0.00 | 0.00 | 85 | 1011.6 |
| 20260507005508 | 6 | 96 | 14.5 | 17.7 | 0.00 | 0.00 | 0.00 | 85 | 1011.4 |
| 20260507005208 | 6 | 21 | 11.3 | 24.1 | 0.00 | 0.00 | 0.00 | 85 | 1011.5 |
| 20260507004908 | 6 | 45 | 16.1 | 25.7 | 0.00 | 0.00 | 0.00 | 85 | 1011.4 |
| 20260507004608 | 6 | 355 | 16.1 | 24.1 | 0.00 | 0.00 | 0.00 | 85 | 1011.4 |
| 20260507004308 | 6 | 73 | 25.7 | 25.7 | 0.00 | 0.00 | 0.00 | 85 | 1011.3 |
| 20260507004008 | 6 | 48 | 11.3 | 24.1 | 0.00 | 0.00 | 0.00 | 85 | 1011.5 |
| 20260507003708 | 6 | 111 | 0.0 | 37.0 | 0.00 | 0.00 | 0.00 | 84 | 1011.4 |
| 20260507003408 | 6 | 87 | 29.0 | 29.0 | 0.00 | 0.00 | 0.00 | 84 | 1011.4 |
| 20260507003108 | 6 | 51 | 0.0 | 17.7 | 0.00 | 0.00 | 0.00 | 84 | 1011.4 |
| 20260507002808 | 6 | 75 | 20.9 | 43.5 | 0.00 | 0.00 | 0.00 | 84 | 1011.2 |
| 20260507002508 | 6 | 15 | 9.7 | 27.4 | 0.00 | 0.00 | 0.00 | 84 | 1011.6 |
| 20260507002208 | 6 | 71 | 22.5 | 30.6 | 0.00 | 0.00 | 0.00 | 84 | 1011.3 |
| 20260507001908 | 6 | 93 | 30.6 | 46.7 | 0.00 | 0.00 | 0.00 | 84 | 1011.3 |
| 20260507001608 | 6 | 100 | 12.9 | 19.3 | 0.00 | 0.00 | 0.00 | 84 | 1011.3 |
| 20260507001308 | 6 | 86 | 27.4 | 43.5 | 0.00 | 0.00 | 0.00 | 84 | 1011.4 |
| 20260507001008 | 6 | 132 | 0.0 | 30.6 | 0.00 | 0.00 | 0.00 | 84 | 1011.4 |
| 20260507000708 | 6 | 48 | 9.7 | 30.6 | 0.00 | 0.00 | 0.00 | 84 | 1011.4 |
| 20260507000408 | 6 | 338 | 9.7 | 25.7 | 0.00 | 0.00 | 0.00 | 84 | 1011.4 |
| 20260507000108 | 6 | 72 | 17.7 | 37.0 | 0.00 | 0.00 | 0.00 | 84 | 1011.4 |
| 20260506235808 | 6 | 71 | 9.7 | 27.4 | 0.00 | 0.00 | 0.00 | 84 | 1011.2 |
| 20260506235508 | 6 | 63 | 20.9 | 49.9 | 0.00 | 0.00 | 0.00 | 84 | 1011.2 |
| 20260506235208 | 6 | 76 | 25.7 | 33.8 | 0.00 | 0.00 | 0.00 | 84 | 1011.3 |
| 20260506234908 | 6 | 95 | 11.3 | 32.2 | 0.00 | 0.00 | 0.00 | 84 | 1011.2 |
| 20260506234608 | 6 | 113 | 8.0 | 54.7 | 0.00 | 0.00 | 0.00 | 84 | 1011.2 |
| 20260506234308 | 6 | 89 | 0.0 | 40.2 | 0.00 | 0.00 | 0.00 | 84 | 1011.2 |
| 20260506234008 | 6 | 83 | 27.4 | 30.6 | 0.00 | 0.00 | 0.00 | 84 | 1011.2 |
| 20260506233708 | 6 | 66 | 27.4 | 40.2 | 0.00 | 0.00 | 0.00 | 84 | 1011.3 |
| 20260506233408 | 6 | 119 | 16.1 | 57.9 | 0.00 | 0.00 | 0.00 | 84 | 1011.3 |
| 20260506233108 | 6 | 106 | 11.3 | 27.4 | 0.00 | 0.00 | 0.00 | 85 | 1011.1 |
| 20260506232808 | 6 | 67 | 20.9 | 37.0 | 0.00 | 0.00 | 0.00 | 85 | 1011.5 |
| 20260506232508 | 6 | 49 | 19.3 | 22.5 | 0.00 | 0.00 | 0.00 | 85 | 1011.3 |
| 20260506232208 | 6 | 44 | 17.7 | 37.0 | 0.00 | 0.00 | 0.00 | 85 | 1011.3 |
| 20260506231908 | 6 | 103 | 16.1 | 22.5 | 0.00 | 0.00 | 0.00 | 85 | 1011.2 |
| 20260506231608 | 6 | 83 | 29.0 | 43.5 | 0.00 | 0.00 | 0.00 | 85 | 1011.3 |
| 20260506231308 | 6 | 94 | 16.1 | 19.3 | 0.00 | 0.00 | 0.00 | 85 | 1011.3 |
| 20260506231008 | 6 | 48 | 37.0 | 41.8 | 0.00 | 0.00 | 0.00 | 85 | 1011.0 |
| 20260506230708 | 6 | 114 | 12.9 | 27.4 | 0.00 | 0.00 | 0.00 | 85 | 1011.2 |
| 20260506230408 | 6 | 94 | 9.7 | 11.3 | 0.00 | 0.00 | 0.00 | 85 | 1011.3 |
| 20260506230108 | 6 | 78 | 9.7 | 30.6 | 0.00 | 0.00 | 0.00 | 85 | 1011.0 |
| 20260506225808 | 6 | 92 | 14.5 | 25.7 | 0.00 | 0.00 | 0.00 | 85 | 1011.1 |
| 20260506225508 | 6 | 83 | 11.3 | 38.6 | 0.00 | 0.00 | 0.00 | 85 | 1011.0 |
| 20260506225208 | 6 | 58 | 19.3 | 25.7 | 0.00 | 0.00 | 0.00 | 85 | 1011.0 |
| 20260506224908 | 6 | 105 | 22.5 | 25.7 | 0.00 | 0.00 | 0.00 | 85 | 1011.2 |
| 20260506224608 | 6 | 66 | 11.3 | 35.4 | 0.00 | 0.00 | 0.00 | 85 | 1010.9 |
| 20260506224308 | 6 | 36 | 14.5 | 29.0 | 0.00 | 0.00 | 0.00 | 85 | 1011.0 |
| 20260506224008 | 6 | 109 | 16.1 | 20.9 | 0.00 | 0.00 | 0.00 | 85 | 1011.0 |
| 20260506223708 | 6 | 81 | 17.7 | 35.4 | 0.00 | 0.00 | 0.00 | 85 | 1010.9 |
| 20260506223408 | 6 | 120 | 16.1 | 20.9 | 0.00 | 0.00 | 0.00 | 85 | 1010.9 |
| 20260506223108 | 6 | 92 | 24.1 | 46.7 | 0.00 | 0.00 | 0.00 | 85 | 1010.9 |
| 20260506222808 | 6 | 73 | 16.1 | 24.1 | 0.00 | 0.00 | 0.00 | 84 | 1010.7 |
| 20260506222508 | 6 | 145 | 0.0 | 24.1 | 0.00 | 0.00 | 0.00 | 84 | 1010.9 |
| 20260506222208 | 6 | 32 | 0.0 | 40.2 | 0.00 | 0.00 | 0.00 | 84 | 1010.9 |
| 20260506221908 | 6 | 72 | 9.7 | 25.7 | 0.00 | 0.00 | 0.00 | 84 | 1010.8 |
| 20260506221608 | 7 | 33 | 0.0 | 27.4 | 0.00 | 0.00 | 0.00 | 84 | 1010.8 |
| 20260506221308 | 7 | 83 | 16.1 | 22.5 | 0.00 | 0.00 | 0.00 | 84 | 1010.7 |
| 20260506221008 | 7 | 55 | 0.0 | 24.1 | 0.00 | 0.00 | 0.00 | 83 | 1010.7 |
| 20260506220708 | 7 | 19 | 12.9 | 20.9 | 0.00 | 0.00 | 0.00 | 83 | 1010.6 |
| 20260506220408 | 7 | 38 | 11.3 | 32.2 | 0.00 | 0.00 | 0.00 | 83 | 1010.8 |
| 20260506220108 | 7 | 87 | 12.9 | 22.5 | 0.00 | 0.00 | 0.00 | 83 | 1010.7 |
| 20260506215808 | 7 | 56 | 25.7 | 25.7 | 0.00 | 0.00 | 0.00 | 82 | 1010.7 |
| 20260506215508 | 7 | 72 | 25.7 | 37.0 | 0.00 | 0.00 | 0.00 | 82 | 1010.7 |
| 20260506215208 | 7 | 95 | 11.3 | 22.5 | 0.00 | 0.00 | 0.00 | 82 | 1010.8 |
| 20260506214908 | 7 | 59 | 20.9 | 27.4 | 0.00 | 0.00 | 0.00 | 82 | 1010.9 |
| 20260506214608 | 7 | 71 | 11.3 | 62.8 | 0.00 | 0.00 | 0.00 | 82 | 1010.8 |
| 20260506214308 | 7 | 63 | 25.7 | 40.2 | 0.00 | 0.00 | 0.00 | 82 | 1010.8 |
| 20260506214008 | 7 | 84 | 19.3 | 35.4 | 0.00 | 0.00 | 0.00 | 82 | 1010.8 |
| 20260506213708 | 7 | 79 | 12.9 | 22.5 | 0.00 | 0.00 | 0.00 | 81 | 1010.7 |
| 20260506213408 | 7 | 93 | 30.6 | 57.9 | 0.00 | 0.00 | 0.00 | 81 | 1010.6 |
| 20260506213108 | 7 | 89 | 12.9 | 33.8 | 0.00 | 0.00 | 0.00 | 81 | 1010.5 |
| 20260506212808 | 7 | 80 | 16.1 | 25.7 | 0.00 | 0.00 | 0.00 | 81 | 1010.6 |
| 20260506212508 | 7 | 102 | 17.7 | 35.4 | 0.00 | 0.00 | 0.00 | 81 | 1010.6 |
| 20260506212208 | 7 | 65 | 9.7 | 24.1 | 0.00 | 0.00 | 0.00 | 81 | 1010.5 |
| 20260506211908 | 7 | 92 | 17.7 | 45.1 | 0.00 | 0.00 | 0.00 | 81 | 1010.5 |
| 20260506211608 | 7 | 48 | 11.3 | 30.6 | 0.00 | 0.00 | 0.00 | 81 | 1010.5 |
| 20260506211308 | 7 | 239 | 11.3 | 54.7 | 0.00 | 0.00 | 0.00 | 81 | 1010.2 |
| 20260506211008 | 7 | 117 | 0.0 | 30.6 | 0.00 | 0.00 | 0.00 | 81 | 1010.4 |
| 20260506210708 | 7 | 94 | 11.3 | 33.8 | 0.00 | 0.00 | 0.00 | 81 | 1010.3 |
| 20260506210408 | 7 | 111 | 19.3 | 30.6 | 0.00 | 0.00 | 0.00 | 81 | 1010.4 |
| 20260506210108 | 7 | 109 | 48.3 | 61.2 | 0.00 | 0.00 | 0.00 | 81 | 1010.5 |
| 20260506205808 | 7 | 59 | 17.7 | 33.8 | 0.00 | 0.00 | 0.00 | 81 | 1010.6 |
| 20260506205508 | 7 | 71 | 38.6 | 43.5 | 0.00 | 0.00 | 0.00 | 81 | 1010.4 |
| 20260506205208 | 7 | 140 | 17.7 | 35.4 | 0.00 | 0.00 | 0.00 | 81 | 1010.5 |
| 20260506204908 | 7 | 67 | 22.5 | 37.0 | 0.00 | 0.00 | 0.00 | 81 | 1010.3 |
| 20260506204608 | 7 | 112 | 29.0 | 37.0 | 0.00 | 0.00 | 0.00 | 81 | 1010.3 |
| 20260506204308 | 7 | 58 | 22.5 | 37.0 | 0.00 | 0.00 | 0.00 | 81 | 1010.4 |
| 20260506204008 | 7 | 51 | 9.7 | 25.7 | 0.00 | 0.00 | 0.00 | 81 | 1010.2 |
| 20260506203708 | 7 | 114 | 12.9 | 35.4 | 0.00 | 0.00 | 0.00 | 81 | 1010.4 |
| 20260506203408 | 7 | 48 | 32.2 | 56.3 | 0.00 | 0.00 | 0.00 | 81 | 1010.5 |
| 20260506203108 | 8 | 102 | 24.1 | 43.5 | 0.00 | 0.00 | 0.00 | 81 | 1010.4 |
| 20260506202808 | 8 | 77 | 17.7 | 49.9 | 0.00 | 0.00 | 0.00 | 81 | 1010.2 |
| 20260506202508 | 8 | 79 | 24.1 | 40.2 | 0.00 | 0.00 | 0.00 | 81 | 1010.4 |
| 20260506202208 | 8 | 84 | 11.3 | 33.8 | 0.00 | 0.00 | 0.00 | 81 | 1010.3 |
| 20260506201908 | 8 | 126 | 24.1 | 66.0 | 0.00 | 0.00 | 0.00 | 81 | 1010.1 |
| 20260506201608 | 8 | 61 | 17.7 | 38.6 | 0.00 | 0.00 | 0.00 | 81 | 1009.9 |
| 20260506201308 | 8 | 108 | 20.9 | 64.4 | 0.00 | 0.00 | 0.00 | 81 | 1010.0 |
| 20260506201008 | 8 | 40 | 17.7 | 62.8 | 0.00 | 0.00 | 0.00 | 81 | 1010.0 |
| 20260506200708 | 8 | 109 | 12.9 | 20.9 | 0.00 | 0.00 | 0.00 | 81 | 1010.2 |
| 20260506200408 | 8 | 86 | 20.9 | 53.1 | 0.00 | 0.00 | 0.00 | 81 | 1010.0 |
| 20260506200108 | 8 | 123 | 30.6 | 70.8 | 0.00 | 0.00 | 0.00 | 81 | 1010.0 |
| 20260506195808 | 8 | 72 | 33.8 | 54.7 | 0.00 | 0.00 | 0.00 | 81 | 1010.0 |
| 20260506195508 | 8 | 108 | 20.9 | 59.5 | 0.00 | 0.00 | 0.00 | 81 | 1009.8 |
| 20260506195208 | 8 | 37 | 30.6 | 32.2 | 0.00 | 0.00 | 0.00 | 81 | 1009.9 |
| 20260506194908 | 8 | 22 | 8.0 | 29.0 | 0.00 | 0.00 | 0.00 | 81 | 1010.0 |
| 20260506194608 | 8 | 108 | 16.1 | 43.5 | 0.00 | 0.00 | 0.00 | 81 | 1009.9 |
| 20260506194308 | 8 | 61 | 37.0 | 49.9 | 0.00 | 0.00 | 0.00 | 81 | 1009.9 |
| 20260506194008 | 8 | 70 | 16.1 | 37.0 | 0.00 | 0.00 | 0.00 | 81 | 1010.1 |
| 20260506193708 | 8 | 46 | 43.5 | 54.7 | 0.00 | 0.00 | 0.00 | 81 | 1010.0 |
| 20260506193408 | 8 | 104 | 37.0 | 59.5 | 0.00 | 0.00 | 0.00 | 81 | 1009.8 |
| 20260506193108 | 8 | 55 | 41.8 | 57.9 | 0.00 | 0.00 | 0.00 | 81 | 1009.8 |
| 20260506192808 | 8 | 73 | 35.4 | 61.2 | 0.00 | 0.00 | 0.00 | 81 | 1009.8 |
| 20260506192508 | 8 | 48 | 40.2 | 46.7 | 0.00 | 0.00 | 0.00 | 80 | 1009.9 |
| 20260506192208 | 8 | 71 | 24.1 | 43.5 | 0.00 | 0.00 | 0.00 | 81 | 1009.7 |
| 20260506191908 | 8 | 125 | 27.4 | 59.5 | 0.00 | 0.00 | 0.00 | 80 | 1009.8 |
| 20260506191608 | 8 | 77 | 45.1 | 64.4 | 0.00 | 0.00 | 0.00 | 80 | 1009.6 |
| 20260506191308 | 8 | 112 | 9.7 | 51.5 | 0.00 | 0.00 | 0.00 | 80 | 1009.7 |
| 20260506191008 | 8 | 91 | 8.0 | 43.5 | 0.00 | 0.00 | 0.00 | 80 | 1009.8 |
| 20260506190708 | 8 | 57 | 48.3 | 54.7 | 0.00 | 0.00 | 0.00 | 80 | 1009.7 |
| 20260506190408 | 8 | 124 | 40.2 | 43.5 | 0.00 | 0.00 | 0.00 | 80 | 1009.7 |
| 20260506190108 | 8 | 59 | 27.4 | 40.2 | 0.00 | 0.00 | 0.00 | 80 | 1009.6 |
| 20260506185808 | 8 | 87 | 16.1 | 61.2 | 0.00 | 0.00 | 0.00 | 80 | 1009.7 |
| 20260506185508 | 8 | 51 | 0.0 | 48.3 | 0.00 | 0.00 | 0.00 | 80 | 1009.6 |
| 20260506185208 | 8 | 105 | 17.7 | 24.1 | 0.00 | 0.00 | 0.00 | 81 | 1009.7 |
| 20260506184908 | 8 | 80 | 9.7 | 37.0 | 0.00 | 0.00 | 0.00 | 80 | 1009.5 |
| 20260506184608 | 8 | 108 | 14.5 | 29.0 | 0.00 | 0.00 | 0.00 | 80 | 1009.5 |
| 20260506184308 | 8 | 103 | 24.1 | 29.0 | 0.00 | 0.00 | 0.00 | 80 | 1009.4 |
| 20260506184008 | 8 | 119 | 25.7 | 37.0 | 0.00 | 0.00 | 0.00 | 80 | 1009.4 |
| 20260506183708 | 8 | 92 | 30.6 | 64.4 | 0.00 | 0.00 | 0.00 | 79 | 1009.5 |
| 20260506183408 | 8 | 100 | 16.1 | 51.5 | 0.00 | 0.00 | 0.00 | 79 | 1009.3 |
| 20260506183108 | 8 | 35 | 40.2 | 45.1 | 0.00 | 0.00 | 0.00 | 79 | 1009.4 |
| 20260506182808 | 8 | 44 | 38.6 | 67.6 | 0.00 | 0.00 | 0.00 | 79 | 1009.4 |
| 20260506182508 | 8 | 78 | 22.5 | 80.5 | 0.00 | 0.00 | 0.00 | 79 | 1009.3 |
| 20260506182208 | 8 | 94 | 17.7 | 56.3 | 0.00 | 0.00 | 0.00 | 79 | 1009.2 |
| 20260506181908 | 9 | 48 | 20.9 | 46.7 | 0.00 | 0.00 | 0.00 | 79 | 1009.1 |
| 20260506181608 | 9 | 88 | 40.2 | 43.5 | 0.00 | 0.00 | 0.00 | 80 | 1009.3 |
| 20260506181308 | 9 | 141 | 24.1 | 64.4 | 0.00 | 0.00 | 0.00 | 80 | 1008.9 |
| 20260506181008 | 9 | 82 | 30.6 | 61.2 | 0.00 | 0.00 | 0.00 | 80 | 1009.2 |
| 20260506180708 | 9 | 32 | 19.3 | 46.7 | 0.00 | 0.00 | 0.00 | 80 | 1009.0 |
| 20260506180408 | 9 | 60 | 17.7 | 57.9 | 0.00 | 0.00 | 0.00 | 80 | 1009.2 |
| 20260506180108 | 9 | 98 | 38.6 | 62.8 | 0.00 | 0.00 | 0.00 | 80 | 1009.0 |
| 20260506175808 | 9 | 134 | 33.8 | 67.6 | 0.00 | 0.00 | 0.00 | 80 | 1009.1 |
| 20260506175508 | 9 | 68 | 30.6 | 59.5 | 0.00 | 0.00 | 0.00 | 79 | 1009.0 |
| 20260506175208 | 9 | 51 | 40.2 | 53.1 | 0.00 | 0.00 | 0.00 | 79 | 1009.1 |
| 20260506174908 | 9 | 83 | 20.9 | 62.8 | 0.00 | 0.00 | 0.00 | 79 | 1008.8 |
| 20260506174608 | 9 | 59 | 54.7 | 62.8 | 0.00 | 0.00 | 0.00 | 79 | 1009.0 |
| 20260506174308 | 10 | 59 | 43.5 | 69.2 | 0.00 | 0.00 | 0.00 | 79 | 1009.0 |
| 20260506174008 | 10 | 84 | 24.1 | 69.2 | 0.00 | 0.00 | 0.00 | 79 | 1009.2 |
| 20260506173708 | 10 | 64 | 25.7 | 49.9 | 0.00 | 0.00 | 0.00 | 79 | 1008.9 |
| 20260506173408 | 10 | 63 | 40.2 | 49.9 | 0.00 | 0.00 | 0.00 | 79 | 1008.7 |
| 20260506173108 | 10 | 87 | 12.9 | 74.0 | 0.00 | 0.00 | 0.00 | 79 | 1008.9 |
| 20260506172808 | 10 | 86 | 25.7 | 46.7 | 0.00 | 0.00 | 0.00 | 79 | 1008.9 |
| 20260506172508 | 10 | 74 | 17.7 | 37.0 | 0.00 | 0.00 | 0.00 | 79 | 1008.7 |
| 20260506172208 | 10 | 74 | 9.7 | 54.7 | 0.00 | 0.00 | 0.00 | 78 | 1008.8 |
| 20260506171908 | 10 | 91 | 14.5 | 72.4 | 0.00 | 0.00 | 0.00 | 78 | 1008.6 |
| 20260506171608 | 10 | 67 | 35.4 | 67.6 | 0.00 | 0.00 | 0.00 | 78 | 1008.7 |
| 20260506171308 | 10 | 83 | 29.0 | 38.6 | 0.00 | 0.00 | 0.00 | 78 | 1008.5 |
| 20260506171008 | 10 | 74 | 33.8 | 37.0 | 0.00 | 0.00 | 0.00 | 78 | 1008.4 |
| 20260506170708 | 10 | 116 | 11.3 | 43.5 | 0.00 | 0.00 | 0.00 | 77 | 1008.4 |
| 20260506170408 | 10 | 31 | 30.6 | 41.8 | 0.00 | 0.00 | 0.00 | 77 | 1008.6 |
| 20260506170108 | 10 | 72 | 30.6 | 46.7 | 0.00 | 0.00 | 0.00 | 77 | 1008.4 |
| 20260506165808 | 10 | 30 | 24.1 | 45.1 | 0.00 | 0.00 | 0.00 | 76 | 1008.6 |
| 20260506165508 | 10 | 97 | 22.5 | 51.5 | 0.00 | 0.00 | 0.00 | 75 | 1008.3 |
| 20260506165208 | 11 | 111 | 22.5 | 56.3 | 0.00 | 0.00 | 0.00 | 75 | 1008.4 |
| 20260506164908 | 11 | 89 | 20.9 | 59.5 | 0.00 | 0.00 | 0.00 | 74 | 1008.2 |
| 20260506164608 | 11 | 71 | 32.2 | 48.3 | 0.00 | 0.00 | 0.00 | 74 | 1008.3 |
| 20260506164308 | 11 | 56 | 25.7 | 56.3 | 0.00 | 0.00 | 0.00 | 73 | 1008.2 |
| 20260506164008 | 11 | 115 | 29.0 | 43.5 | 0.00 | 0.00 | 0.00 | 73 | 1008.2 |
| 20260506163708 | 11 | 99 | 43.5 | 70.8 | 0.00 | 0.00 | 0.00 | 72 | 1008.3 |
| 20260506163408 | 11 | 130 | 40.2 | 66.0 | 0.00 | 0.00 | 0.00 | 71 | 1008.2 |
| 20260506163108 | 11 | 63 | 24.1 | 49.9 | 0.00 | 0.00 | 0.00 | 70 | 1008.2 |
| 20260506162808 | 11 | 74 | 17.7 | 62.8 | 0.00 | 0.00 | 0.00 | 69 | 1008.2 |
| 20260506162508 | 12 | 42 | 24.1 | 57.9 | 0.00 | 0.00 | 0.00 | 69 | 1008.2 |
| 20260506162208 | 12 | 93 | 16.1 | 40.2 | 0.00 | 0.00 | 0.00 | 68 | 1008.2 |
| 20260506161908 | 12 | 31 | 17.7 | 46.7 | 0.00 | 0.00 | 0.00 | 67 | 1008.2 |
| 20260506161608 | 12 | 197 | 19.3 | 37.0 | 0.00 | 0.00 | 0.00 | 67 | 1008.1 |
| 20260506161308 | 12 | 9 | 25.7 | 37.0 | 0.00 | 0.00 | 0.00 | 67 | 1007.9 |
| 20260506161008 | 12 | 99 | 29.0 | 49.9 | 0.00 | 0.00 | 0.00 | 65 | 1008.0 |
| 20260506160708 | 12 | 298 | 16.1 | 48.3 | 0.00 | 0.00 | 0.00 | 66 | 1008.1 |
| 20260506160408 | 12 | 94 | 25.7 | 53.1 | 0.00 | 0.00 | 0.00 | 66 | 1008.0 |
| 20260506160108 | 12 | 88 | 24.1 | 29.0 | 0.00 | 0.00 | 0.00 | 68 | 1007.8 |
| 20260506155808 | 11 | 82 | 19.3 | 49.9 | 0.00 | 0.00 | 0.00 | 72 | 1007.9 |
| 20260506155508 | 11 | 276 | 11.3 | 29.0 | 0.00 | 0.00 | 0.00 | 77 | 1007.9 |
| 20260506155208 | 11 | 265 | 14.5 | 37.0 | 0.00 | 0.00 | 0.00 | 77 | 1008.1 |
| 20260506154908 | 11 | 54 | 14.5 | 33.8 | 0.00 | 0.00 | 0.00 | 76 | 1008.0 |
| 20260506154608 | 11 | 21 | 25.7 | 40.2 | 0.00 | 0.00 | 0.00 | 75 | 1008.0 |
| 20260506154308 | 12 | 350 | 20.9 | 30.6 | 0.00 | 0.00 | 0.00 | 74 | 1008.0 |
| 20260506154008 | 12 | 37 | 29.0 | 35.4 | 0.00 | 0.00 | 0.00 | 75 | 1008.0 |
| 20260506153708 | 12 | 14 | 8.0 | 38.6 | 0.00 | 0.00 | 0.00 | 75 | 1008.1 |
| 20260506153408 | 12 | 47 | 19.3 | 40.2 | 0.00 | 0.00 | 0.00 | 75 | 1008.1 |
| 20260506153108 | 12 | 79 | 19.3 | 37.0 | 0.00 | 0.00 | 0.00 | 74 | 1008.3 |
| 20260506152808 | 12 | 26 | 17.7 | 33.8 | 0.00 | 0.00 | 0.00 | 74 | 1008.0 |
| 20260506152508 | 12 | 28 | 17.7 | 29.0 | 0.00 | 0.00 | 0.00 | 74 | 1007.9 |
| 20260506152208 | 12 | 87 | 12.9 | 33.8 | 0.00 | 0.00 | 0.00 | 74 | 1008.2 |
| 20260506151908 | 12 | 77 | 37.0 | 57.9 | 0.00 | 0.00 | 0.00 | 74 | 1008.2 |
| 20260506151608 | 12 | 55 | 19.3 | 29.0 | 0.00 | 0.00 | 0.00 | 75 | 1008.1 |
| 20260506151308 | 12 | 87 | 12.9 | 33.8 | 0.00 | 0.00 | 0.00 | 75 | 1008.2 |
| 20260506151008 | 12 | 4 | 24.1 | 43.5 | 0.00 | 0.00 | 0.00 | 74 | 1008.1 |
| 20260506150708 | 12 | 358 | 16.1 | 37.0 | 0.00 | 0.00 | 0.00 | 74 | 1008.2 |
| 20260506150408 | 12 | 274 | 22.5 | 35.4 | 0.00 | 0.00 | 0.00 | 73 | 1008.2 |
| 20260506150108 | 12 | 24 | 17.7 | 45.1 | 0.00 | 0.00 | 0.00 | 73 | 1008.1 |
| 20260506145808 | 12 | 333 | 27.4 | 32.2 | 0.00 | 0.00 | 0.00 | 70 | 1008.4 |
| 20260506145508 | 12 | 50 | 9.7 | 35.4 | 0.00 | 0.00 | 0.00 | 70 | 1008.3 |
| 20260506145208 | 12 | 358 | 29.0 | 43.5 | 0.00 | 0.00 | 0.00 | 70 | 1008.2 |
| 20260506144908 | 12 | 111 | 27.4 | 29.0 | 0.00 | 0.00 | 0.00 | 71 | 1008.1 |
| 20260506144608 | 12 | 2 | 12.9 | 32.2 | 0.00 | 0.00 | 0.00 | 72 | 1008.0 |
| 20260506144308 | 12 | 353 | 33.8 | 33.8 | 0.00 | 0.00 | 0.00 | 71 | 1007.9 |
| 20260506144008 | 12 | 5 | 24.1 | 30.6 | 0.00 | 0.00 | 0.00 | 71 | 1008.1 |
| 20260506143708 | 12 | 65 | 27.4 | 38.6 | 0.00 | 0.00 | 0.00 | 71 | 1008.1 |
| 20260506143408 | 12 | 83 | 11.3 | 32.2 | 0.00 | 0.00 | 0.00 | 71 | 1008.0 |
| 20260506143108 | 12 | 319 | 8.0 | 30.6 | 0.00 | 0.00 | 0.00 | 71 | 1008.0 |
| 20260506142808 | 12 | 112 | 11.3 | 27.4 | 0.00 | 0.00 | 0.00 | 72 | 1008.2 |
| 20260506142508 | 12 | 37 | 25.7 | 43.5 | 0.00 | 0.00 | 0.00 | 71 | 1008.3 |
| 20260506142208 | 12 | 33 | 19.3 | 35.4 | 0.00 | 0.00 | 0.00 | 72 | 1008.0 |
| 20260506141908 | 12 | 49 | 9.7 | 37.0 | 0.00 | 0.00 | 0.00 | 72 | 1008.1 |
| 20260506141608 | 12 | 337 | 19.3 | 43.5 | 0.00 | 0.00 | 0.00 | 71 | 1008.1 |
| 20260506141308 | 12 | 99 | 24.1 | 32.2 | 0.00 | 0.00 | 0.00 | 71 | 1008.0 |
| 20260506141008 | 12 | 215 | 14.5 | 40.2 | 0.00 | 0.00 | 0.00 | 70 | 1008.0 |
| 20260506140708 | 12 | 353 | 14.5 | 56.3 | 0.00 | 0.00 | 0.00 | 71 | 1007.9 |
| 20260506140408 | 12 | 43 | 9.7 | 33.8 | 0.00 | 0.00 | 0.00 | 70 | 1008.1 |
| 20260506140108 | 12 | 21 | 12.9 | 29.0 | 0.00 | 0.00 | 0.00 | 70 | 1008.1 |
| 20260506135808 | 12 | 29 | 14.5 | 29.0 | 0.00 | 0.00 | 0.00 | 70 | 1008.1 |
| 20260506135508 | 12 | 95 | 17.7 | 30.6 | 0.00 | 0.00 | 0.00 | 70 | 1008.1 |
| 20260506135208 | 12 | 12 | 9.7 | 29.0 | 0.00 | 0.00 | 0.00 | 70 | 1008.1 |
| 20260506134908 | 12 | 81 | 29.0 | 40.2 | 0.00 | 0.00 | 0.00 | 70 | 1008.1 |
| 20260506134608 | 12 | 78 | 16.1 | 27.4 | 0.00 | 0.00 | 0.00 | 70 | 1008.2 |
| 20260506134308 | 12 | 72 | 16.1 | 46.7 | 0.00 | 0.00 | 0.00 | 69 | 1007.9 |
| 20260506134008 | 12 | 100 | 0.0 | 40.2 | 0.00 | 0.00 | 0.00 | 69 | 1008.0 |
| 20260506133708 | 12 | 83 | 16.1 | 43.5 | 0.00 | 0.00 | 0.00 | 69 | 1007.9 |
| 20260506133408 | 12 | 108 | 12.9 | 43.5 | 0.00 | 0.00 | 0.00 | 70 | 1008.0 |
| 20260506133108 | 12 | 39 | 17.7 | 30.6 | 0.00 | 0.00 | 0.00 | 70 | 1007.9 |
| 20260506132808 | 12 | 3 | 20.9 | 45.1 | 0.00 | 0.00 | 0.00 | 69 | 1008.2 |
| 20260506132508 | 12 | 75 | 17.7 | 25.7 | 0.00 | 0.00 | 0.00 | 70 | 1007.9 |
| 20260506132208 | 12 | 30 | 6.4 | 22.5 | 0.00 | 0.00 | 0.00 | 70 | 1008.0 |
| 20260506131908 | 12 | 97 | 9.7 | 43.5 | 0.00 | 0.00 | 0.00 | 71 | 1007.9 |
| 20260506131608 | 12 | 61 | 11.3 | 64.4 | 0.00 | 0.00 | 0.00 | 70 | 1008.0 |
| 20260506131308 | 12 | 75 | 16.1 | 33.8 | 0.00 | 0.00 | 0.00 | 71 | 1008.1 |
| 20260506131008 | 12 | 31 | 32.2 | 33.8 | 0.00 | 0.00 | 0.00 | 71 | 1008.2 |
| 20260506130708 | 13 | 72 | 8.0 | 54.7 | 0.00 | 0.00 | 0.00 | 70 | 1007.9 |
| 20260506130408 | 13 | 332 | 19.3 | 43.5 | 0.00 | 0.00 | 0.00 | 71 | 1008.1 |
| 20260506130108 | 12 | 34 | 14.5 | 35.4 | 0.00 | 0.00 | 0.00 | 71 | 1008.0 |
| 20260506125808 | 13 | 82 | 24.1 | 32.2 | 0.00 | 0.00 | 0.00 | 71 | 1007.9 |
| 20260506125508 | 13 | 355 | 9.7 | 33.8 | 0.00 | 0.00 | 0.00 | 72 | 1008.0 |
| 20260506125208 | 13 | 62 | 24.1 | 37.0 | 0.00 | 0.00 | 0.00 | 70 | 1007.8 |
| 20260506124908 | 13 | 295 | 14.5 | 37.0 | 0.00 | 0.00 | 0.00 | 70 | 1008.0 |
| 20260506124608 | 13 | 74 | 11.3 | 33.8 | 0.00 | 0.00 | 0.00 | 71 | 1007.9 |
| 20260506124308 | 13 | 60 | 9.7 | 29.0 | 0.00 | 0.00 | 0.00 | 71 | 1007.8 |
| 20260506124008 | 13 | 102 | 25.7 | 30.6 | 0.00 | 0.00 | 0.00 | 72 | 1008.0 |
| 20260506123708 | 12 | 107 | 25.7 | 32.2 | 0.00 | 0.00 | 0.00 | 73 | 1007.9 |
| 20260506123408 | 12 | 15 | 12.9 | 53.1 | 0.00 | 0.00 | 0.00 | 73 | 1007.8 |
| 20260506123108 | 12 | 84 | 17.7 | 43.5 | 0.00 | 0.00 | 0.00 | 72 | 1007.8 |
| 20260506122808 | 12 | 109 | 17.7 | 24.1 | 0.00 | 0.00 | 0.00 | 71 | 1007.8 |
| 20260506122508 | 12 | 30 | 22.5 | 49.9 | 0.00 | 0.00 | 0.00 | 69 | 1007.8 |
| 20260506122208 | 12 | 59 | 16.1 | 40.2 | 0.00 | 0.00 | 0.00 | 69 | 1007.7 |
| 20260506121908 | 13 | 3 | 9.7 | 37.0 | 0.00 | 0.00 | 0.00 | 69 | 1007.8 |
| 20260506121608 | 12 | 127 | 8.0 | 40.2 | 0.00 | 0.00 | 0.00 | 71 | 1007.7 |
| 20260506121308 | 12 | 69 | 27.4 | 30.6 | 0.00 | 0.00 | 0.00 | 73 | 1007.4 |
| 20260506121008 | 12 | 321 | 29.0 | 30.6 | 0.00 | 0.00 | 0.00 | 72 | 1007.5 |
| 20260506120708 | 12 | 327 | 14.5 | 30.6 | 0.00 | 0.00 | 0.00 | 72 | 1007.4 |
| 20260506120408 | 12 | 341 | 30.6 | 45.1 | 0.00 | 0.00 | 0.00 | 72 | 1007.5 |
| 20260506120108 | 12 | 41 | 17.7 | 56.3 | 0.00 | 0.00 | 0.00 | 71 | 1007.5 |
| 20260506115808 | 12 | 346 | 17.7 | 49.9 | 0.00 | 0.00 | 0.00 | 71 | 1007.5 |
| 20260506115508 | 12 | 84 | 35.4 | 69.2 | 0.00 | 0.00 | 0.00 | 71 | 1007.6 |
| 20260506115208 | 12 | 327 | 11.3 | 49.9 | 0.00 | 0.00 | 0.00 | 72 | 1007.4 |
| 20260506114908 | 12 | 119 | 0.0 | 49.9 | 0.00 | 0.00 | 0.00 | 71 | 1007.5 |
| 20260506114608 | 13 | 84 | 14.5 | 37.0 | 0.00 | 0.00 | 0.00 | 70 | 1007.4 |
| 20260506114308 | 12 | 297 | 14.5 | 27.4 | 0.00 | 0.00 | 0.00 | 71 | 1007.5 |
| 20260506114008 | 12 | 112 | 8.0 | 20.9 | 0.00 | 0.00 | 0.00 | 72 | 1007.3 |
| 20260506113708 | 12 | 350 | 19.3 | 41.8 | 0.00 | 0.00 | 0.00 | 70 | 1007.5 |
| 20260506113408 | 12 | 82 | 12.9 | 43.5 | 0.00 | 0.00 | 0.00 | 71 | 1007.4 |
| 20260506113108 | 13 | 63 | 24.1 | 24.1 | 0.00 | 0.00 | 0.00 | 70 | 1007.6 |
| 20260506112808 | 12 | 89 | 0.0 | 30.6 | 0.00 | 0.00 | 0.00 | 71 | 1007.4 |
| 20260506112508 | 12 | 170 | 19.3 | 37.0 | 0.00 | 0.00 | 0.00 | 70 | 1007.4 |
| 20260506112208 | 13 | 2 | 25.7 | 41.8 | 0.00 | 0.00 | 0.00 | 70 | 1007.6 |
| 20260506111908 | 12 | 93 | 27.4 | 32.2 | 0.00 | 0.00 | 0.00 | 70 | 1007.4 |
| 20260506111608 | 12 | 92 | 19.3 | 25.7 | 0.00 | 0.00 | 0.00 | 70 | 1007.5 |
| 20260506111308 | 12 | 100 | 8.0 | 27.4 | 0.00 | 0.00 | 0.00 | 70 | 1007.3 |
| 20260506111008 | 12 | 62 | 12.9 | 35.4 | 0.00 | 0.00 | 0.00 | 70 | 1007.3 |
| 20260506110708 | 12 | 81 | 0.0 | 37.0 | 0.00 | 0.00 | 0.00 | 69 | 1007.1 |
| 20260506110408 | 12 | 29 | 11.3 | 35.4 | 0.00 | 0.00 | 0.00 | 69 | 1007.3 |
| 20260506110108 | 12 | 108 | 29.0 | 35.4 | 0.00 | 0.00 | 0.00 | 69 | 1007.4 |
| 20260506105808 | 12 | 101 | 6.4 | 41.8 | 0.00 | 0.00 | 0.00 | 70 | 1007.4 |
| 20260506105508 | 12 | 101 | 12.9 | 30.6 | 0.00 | 0.00 | 0.00 | 69 | 1007.3 |
| 20260506105208 | 12 | 88 | 14.5 | 25.7 | 0.00 | 0.00 | 0.00 | 69 | 1007.5 |
| 20260506104908 | 12 | 65 | 17.7 | 37.0 | 0.00 | 0.00 | 0.00 | 71 | 1007.7 |
| 20260506104608 | 12 | 347 | 14.5 | 24.1 | 0.00 | 0.00 | 0.00 | 71 | 1007.4 |
| 20260506104308 | 12 | 105 | 25.7 | 32.2 | 0.00 | 0.00 | 0.00 | 71 | 1007.3 |
| 20260506104008 | 12 | 97 | 27.4 | 46.7 | 0.00 | 0.00 | 0.00 | 70 | 1007.5 |
| 20260506103708 | 12 | 103 | 24.1 | 24.1 | 0.00 | 0.00 | 0.00 | 71 | 1007.3 |
| 20260506103408 | 12 | 89 | 32.2 | 32.2 | 0.00 | 0.00 | 0.00 | 70 | 1007.6 |
| 20260506103108 | 12 | 8 | 24.1 | 24.1 | 0.00 | 0.00 | 0.00 | 71 | 1007.5 |
| 20260506102808 | 12 | 83 | 19.3 | 32.2 | 0.00 | 0.00 | 0.00 | 70 | 1007.5 |
| 20260506102508 | 12 | 3 | 19.3 | 24.1 | 0.00 | 0.00 | 0.00 | 70 | 1007.4 |
| 20260506102208 | 12 | 19 | 14.5 | 30.6 | 0.00 | 0.00 | 0.00 | 70 | 1007.4 |
| 20260506101908 | 11 | 120 | 16.1 | 24.1 | 0.00 | 0.00 | 0.00 | 71 | 1007.5 |
| 20260506101608 | 11 | 119 | 22.5 | 56.3 | 0.00 | 0.00 | 0.00 | 71 | 1007.5 |
| 20260506101308 | 11 | 20 | 19.3 | 22.5 | 0.00 | 0.00 | 0.00 | 71 | 1007.5 |
| 20260506101008 | 11 | 37 | 19.3 | 32.2 | 0.00 | 0.00 | 0.00 | 71 | 1007.5 |
| 20260506100708 | 11 | 67 | 16.1 | 27.4 | 0.00 | 0.00 | 0.00 | 69 | 1007.5 |